STARLINK-1561 (46056 NORAD) Tracking and Keplerian Element Data

This shows tracking and keplerian element data for the satellite.

Feedback or suggestion? Click here.




ElementValue
Catalog46056
NameSTARLINK-1561
Epoch Orbit1891
Epoch Day335.78052273
Epoch Year2020
RAAN117.8684
Inclination53.0023
Eccentricity0.0001837
Argument of Perigee94.7508
Mean Anonmoly265.3689
Mean Motion15.05585191
Decay Rate-4.26E-06
L11 46056U 20055AF 20335.78052273 -.00000426 00000-0 -10059-4 0 9993
L22 46056 53.0023 117.8684 0001837 94.7508 265.3689 15.05585191 18911

Live tracking and technical data element details for STARLINK-1561 (NORAD 46056). STARLINK-1561 can be tracked NOW for your location showing map with azimuth and elevation plus other details from your city location.

Track the satellite on the map from your city or location and see movement details for azimuth, elevation, latitude, longitude, range, height, and movement on the map or in text.







IsCatalogInMostPopularTable: catalog: 46056, numindb: 29
Update: records affected: 1



GetName: 46056 STARLINK-1561

Hit Count: updated at: Tue, 01 Dec 2020 20:10:07 GMT